Flag for U.S.A. Weather past 2 weeks in Elizabeth, New Jersey, U.S.A.

Now
26 °F

Overcast.


Feels Like: 16 °F
Forecast: 29 / 46 °F
Wind: 10 mph from Northwest

Location: Newark International Airport

Current Time: Mar 29, 2015 at 6:54:32 AM

Latest Report: Mar 29, 2015 at 5:51 AM


Visibility: 10 mi

Pressure: 30.20 "Hg

Humidity: 37%

Dew point: 3 °F

Location of ElizabethLocation

Historic Weather in Elizabeth — Graph

°F

Elizabeth temperature yesterday

Maximum temperature yesterday: 43 °F (at 1:51 PM)
Minimum temperature yesterday: 28 °F (at 11:51 PM)
Average temperature yesterday: 37 °F

Past Weeks' High & Low Weather Summary

 TemperatureHumidityPressure
High63 °F (Mar 26, 7:51 PM)100% (Mar 14, 2:51 PM)30.42 "Hg (Mar 14, 2:51 PM)
Low23 °F (Mar 23, 6:51 AM)16% (Mar 19, 3:51 PM)29.56 "Hg (Mar 17, 10:51 AM)
Average39 °F56%30.03 "Hg
* Reported Mar 14 5:51 AM — Mar 29 5:51 AM, Elizabeth, Weather by CustomWeather, © 2015

Note: Actual official high and low records may vary slightly from our data, if they occured in-between our weather recording intervals... More about our weather records

Advertising

Elizabeth weather history for previous 24 hours

 ConditionsComfort  
Time TempWeatherWind HumidityBarometerVisibility
5:51 AM
Sun, Mar 29
26 °FOvercast.10 mph37%30.20 "Hg10 mi
4:51 AM26 °FMostly cloudy.15 mph48%30.19 "Hg10 mi
3:51 AM27 °FOvercast.15 mph41%30.16 "Hg10 mi
2:51 AM27 °FMostly cloudy.18 mph41%30.16 "Hg10 mi
1:51 AM27 °FMostly cloudy.17 mph49%30.15 "Hg10 mi
12:51 AM27 °FMostly cloudy.17 mph58%30.14 "Hg10 mi
11:51 PM
Sat, Mar 28
28 °FPassing clouds.15 mph61%30.13 "Hg10 mi
10:51 PM30 °FPassing clouds.17 mph49%30.11 "Hg10 mi
9:51 PM31 °FPassing clouds.15 mph41%30.08 "Hg10 mi
8:51 PM32 °FPassing clouds.16 mph41%30.05 "Hg10 mi
7:51 PM34 °FPartly sunny.18 mph42%30.00 "Hg10 mi
6:51 PM37 °FPartly sunny.18 mph39%29.96 "Hg10 mi
5:51 PM39 °FPartly sunny.17 mph36%29.90 "Hg10 mi
4:51 PM43 °FBroken clouds.18 mph32%29.87 "Hg10 mi
3:51 PM43 °FBroken clouds.15 mph34%29.84 "Hg10 mi
2:51 PM42 °FBroken clouds.12 mph36%29.83 "Hg10 mi
1:51 PM43 °FPartly sunny.16 mph37%29.83 "Hg10 mi
12:51 PM42 °FBroken clouds.12 mph41%29.84 "Hg10 mi
11:51 AM40 °FPartly sunny.16 mph43%29.84 "Hg10 mi
10:51 AM37 °FPartly sunny.17 mph46%29.84 "Hg10 mi
9:51 AM36 °FPartly sunny.16 mph48%29.83 "Hg10 mi
8:51 AM33 °FBroken clouds.17 mph54%29.82 "Hg10 mi
7:51 AM34 °FBroken clouds.15 mph52%29.81 "Hg10 mi
6:51 AM35 °FMostly cloudy.17 mph52%29.79 "Hg10 mi
Weather by CustomWeather, © 2015

See weather overviewHow to use our weather pages